Probability
0 0 0 0 0 0 0 0 0 0 0 3 3 10 10 6 6 16 16 23 23 32 29 23 26 35 42 58 71 71 71 71 77 77 77 77 71 74 71 74 71 65 65 61
0 0 0 0 0 0 0 0 0 0 0 3 3 10 10 16 10 16 16 23 26 29 32 42 35 39 45 61 74 74 71 71 74 74 77 77 74 74 71 74 68 65 58 61
0 0 0 0 0 0 0 0 0 0 0 3 6 6 13 19 16 16 19 19 26 26 29 48 42 35 48 55 68 61 74 74 74 74 77 74 74 74 71 68 68 65 61 61
0 0 0 0 0 0 0 0 0 0 0 6 6 10 10 16 19 19 19 23 26 29 39 39 45 48 52 52 55 71 77 77 74 74 77 77 74 68 71 68 68 68 65 52
0 0 0 0 0 0 0 0 0 0 0 3 3 6 10 13 19 19 23 19 23 32 35 39 42 45 48 52 52 61 77 81 81 77 74 74 71 71 71 68 68 68 61 52
0 0 0 0 0 0 0 0 0 0 0 0 0 3 13 10 13 16 19 23 26 32 39 39 42 48 48 55 52 55 68 81 81 74 74 71 68 68 68 68 68 61 55 52
0 0 0 0 0 0 0 0 3 0 0 0 0 3 3 10 10 16 13 19 29 32 39 42 45 52 55 52 52 52 68 71 71 68 68 68 65 68 68 68 65 65 61 48
0 0 0 0 0 0 0 0 0 0 0 0 0 6 6 6 13 16 13 23 29 32 35 39 39 48 45 52 55 55 61 65 65 65 65 68 65 68 65 58 58 58 65 58
0 0 0 0 0 0 0 0 0 0 0 0 0 6 10 6 13 16 16 26 29 35 35 32 32 42 42 42 48 52 61 68 61 61 61 61 68 65 61 58 58 58 55 45
0 0 0 0 0 0 0 0 0 0 0 0 0 6 13 19 16 16 13 23 35 39 39 32 32 35 42 39 45 48 61 61 58 61 65 58 61 65 61 61 55 55 58 48
0 0 0 0 0 0 0 0 0 0 0 0 0 0 10 19 19 16 13 19 32 35 29 35 29 32 35 45 45 52 55 61 65 61 65 61 61 65 65 61 61 61 58 55
0 0 0 0 0 0 0 0 0 0 6 0 0 0 0 13 16 16 16 23 29 39 32 23 29 32 45 39 39 48 52 52 55 58 61 58 65 68 65 65 65 65 58 52
0 0 0 0 0 0 0 0 0 0 0 0 0 0 6 10 16 10 23 29 35 45 32 26 32 35 39 39 45 42 45 45 48 55 58 65 61 68 71 68 61 58 55 48
0 0 0 0 0 0 0 0 0 0 0 0 3 6 13 10 16 13 29 29 42 39 35 39 42 45 42 45 48 45 39 39 45 52 52 52 55 61 65 65 65 61 58 48
0 0 0 0 0 0 0 0 0 0 0 0 3 3 6 16 16 23 32 42 45 42 42 48 52 48 52 48 45 42 39 39 42 42 48 48 48 61 65 61 61 58 58 39
0 0 0 0 0 0 0 0 0 0 0 0 3 3 16 26 26 23 32 45 55 55 45 45 48 45 48 48 52 45 48 48 52 52 45 45 45 48 55 58 58 52 55 52
0 0 0 0 0 0 0 0 0 0 3 3 6 10 19 32 32 29 39 45 52 52 48 48 48 48 45 48 52 48 48 48 52 48 45 45 45 48 48 42 48 48 48 45
0 3 0 0 0 0 0 0 0 3 6 6 6 16 16 23 23 19 32 39 52 42 45 55 48 45 42 39 45 48 45 42 48 52 52 52 45 45 45 48 52 52 45 42
0 0 0 0 0 0 0 0 0 3 6 6 13 16 13 13 23 16 26 35 32 39 52 55 48 39 39 39 35 42 48 45 48 52 45 42 42 39 45 45 48 52 45 45
0 0 0 0 0 0 0 0 0 3 6 10 10 6 10 23 23 23 29 32 32 42 39 42 35 35 42 39 45 45 45 45 45 45 45 42 42 42 42 42 39 35 42 42
0 0 0 0 0 0 0 0 0 3 10 13 6 6 13 16 19 29 26 32 39 35 39 39 39 39 35 48 45 48 45 42 39 35 42 42 42 42 42 45 42 42 42 39
0 0 0 0 0 3 6 3 6 16 19 10 10 10 19 23 23 26 29 42 39 32 35 35 39 35 42 35 39 42 39 39 39 39 39 39 45 39 35 42 39 39 42 45
3 3 6 10 10 6 10 13 16 16 13 10 6 13 23 26 23 23 35 39 39 32 29 29 29 32 32 32 35 32 35 32 29 35 42 42 42 39 42 39 39 42 42 39
0 0 6 3 10 3 3 10 10 10 10 6 6 10 16 23 23 29 35 35 39 32 29 29 23 26 26 29 29 29 35 39 32 35 35 35 35 32 35 39 35 35 35 35
0 3 6 6 6 3 3 3 3 6 6 6 3 3 6 16 26 29 35 39 29 29 26 26 29 26 23 29 29 29 32 35 32 35 29 29 29 29 29 29 32 29 29 23
0 0 3 6 10 6 3 3 3 6 6 0 3 3 10 16 23 23 26 29 26 23 23 23 23 26 23 16 16 19 32 29 39 32 29 26 23 19 23 26 23 16 10 10
Height
5908 5911 5913 5916 5917 5918 5920 5921 5921 5924 5924 5923 5922 5922 5921 5921 5920 5919 5918 5917 5917 5916 5915 5914 5913 5912 5911 5911 5910 5909 5908 5907 5906 5905 5904 5903 5902 5901 5900 5899 5898 5897 5895 5894
5908 5910 5913 5914 5916 5918 5919 5920 5921 5922 5922 5922 5922 5921 5920 5920 5919 5919 5917 5916 5916 5915 5915 5914 5913 5912 5911 5910 5909 5908 5907 5907 5906 5905 5904 5903 5901 5900 5899 5898 5897 5896 5894 5892
5905 5909 5911 5912 5914 5916 5918 5919 5920 5921 5921 5920 5921 5920 5919 5918 5918 5917 5917 5916 5915 5914 5914 5913 5912 5911 5910 5909 5909 5908 5907 5906 5905 5903 5902 5901 5900 5899 5898 5897 5895 5894 5892 5891
5903 5906 5908 5910 5913 5914 5915 5917 5918 5918 5919 5918 5919 5918 5917 5916 5916 5916 5915 5914 5913 5913 5912 5911 5911 5910 5909 5908 5907 5906 5905 5904 5903 5902 5901 5900 5899 5898 5897 5895 5894 5892 5890 5888
5901 5903 5905 5908 5910 5912 5913 5915 5915 5915 5915 5916 5916 5916 5916 5914 5914 5914 5914 5913 5911 5911 5910 5910 5909 5908 5907 5906 5906 5905 5904 5903 5902 5901 5900 5899 5897 5896 5895 5893 5891 5890 5888 5886
5898 5900 5903 5905 5908 5909 5911 5912 5912 5912 5913 5913 5913 5913 5913 5913 5913 5912 5911 5911 5910 5909 5909 5908 5907 5906 5905 5905 5904 5903 5902 5901 5900 5899 5898 5897 5895 5894 5892 5891 5889 5887 5885 5883
5894 5897 5900 5902 5904 5906 5908 5910 5910 5909 5909 5910 5911 5911 5911 5910 5910 5910 5909 5908 5908 5908 5907 5906 5905 5905 5904 5903 5902 5901 5900 5899 5898 5897 5896 5894 5893 5891 5890 5888 5886 5884 5882 5880
5891 5894 5897 5898 5900 5902 5904 5906 5907 5908 5908 5908 5907 5908 5908 5907 5906 5906 5906 5905 5905 5905 5904 5904 5903 5902 5901 5900 5899 5898 5897 5896 5895 5894 5893 5891 5889 5888 5886 5884 5882 5881 5879 5877
5889 5892 5894 5895 5897 5899 5901 5902 5905 5906 5906 5905 5905 5905 5903 5902 5903 5903 5903 5902 5902 5901 5901 5900 5900 5899 5898 5897 5896 5895 5895 5893 5892 5891 5889 5888 5886 5884 5883 5881 5879 5877 5875 5873
5885 5888 5890 5892 5893 5895 5897 5899 5901 5902 5902 5902 5902 5901 5900 5900 5900 5901 5900 5898 5898 5899 5898 5897 5896 5896 5895 5894 5893 5892 5891 5890 5889 5887 5886 5884 5883 5881 5879 5877 5875 5873 5871 5869
5880 5883 5886 5888 5889 5891 5894 5895 5896 5898 5898 5899 5897 5897 5896 5896 5896 5895 5896 5895 5895 5895 5895 5894 5893 5892 5891 5890 5889 5889 5887 5886 5885 5883 5882 5880 5879 5877 5875 5873 5870 5868 5867 5865
5875 5878 5881 5884 5886 5888 5889 5891 5892 5894 5894 5894 5894 5895 5892 5891 5891 5890 5890 5890 5891 5891 5890 5889 5888 5887 5886 5886 5885 5884 5883 5882 5881 5879 5878 5876 5874 5872 5870 5868 5866 5864 5862 5860
5869 5872 5876 5879 5883 5883 5884 5885 5887 5889 5889 5889 5889 5890 5888 5887 5885 5885 5886 5886 5885 5886 5885 5884 5883 5883 5882 5881 5880 5879 5878 5877 5876 5875 5873 5871 5869 5867 5865 5863 5861 5859 5857 5855
5865 5867 5871 5875 5876 5876 5878 5880 5881 5882 5883 5883 5883 5884 5883 5882 5881 5881 5881 5881 5880 5880 5880 5879 5878 5878 5877 5876 5875 5874 5873 5872 5871 5870 5868 5866 5864 5862 5860 5857 5855 5853 5851 5849
5860 5863 5866 5868 5870 5872 5873 5874 5876 5877 5877 5878 5878 5878 5877 5875 5874 5874 5875 5875 5875 5874 5874 5873 5873 5872 5871 5871 5870 5869 5868 5867 5866 5864 5862 5861 5859 5856 5854 5852 5849 5847 5845 5843
5854 5857 5860 5862 5864 5867 5868 5869 5870 5871 5872 5872 5871 5871 5870 5870 5869 5869 5869 5868 5867 5868 5867 5867 5867 5867 5866 5865 5864 5863 5862 5861 5859 5858 5857 5855 5853 5850 5848 5845 5843 5841 5839 5837
5848 5851 5853 5856 5859 5860 5862 5864 5864 5865 5865 5865 5864 5864 5863 5863 5862 5862 5863 5863 5862 5862 5861 5861 5861 5860 5860 5859 5858 5857 5856 5855 5853 5852 5850 5848 5846 5844 5842 5839 5837 5835 5833 5831
5842 5844 5847 5850 5853 5854 5858 5857 5857 5857 5856 5857 5857 5857 5857 5855 5855 5855 5855 5856 5856 5856 5855 5855 5855 5854 5854 5853 5852 5851 5850 5848 5847 5845 5844 5842 5840 5837 5835 5833 5831 5829 5827 5825
5837 5838 5840 5843 5845 5847 5849 5849 5849 5849 5849 5850 5849 5849 5850 5849 5848 5848 5849 5849 5849 5849 5848 5848 5848 5847 5847 5846 5845 5844 5843 5841 5840 5839 5837 5835 5833 5831 5829 5826 5824 5822 5820 5818
5830 5832 5834 5836 5838 5841 5840 5840 5841 5843 5842 5841 5842 5842 5841 5841 5841 5841 5841 5841 5842 5841 5841 5841 5840 5840 5839 5839 5838 5837 5836 5834 5833 5831 5829 5828 5826 5824 5822 5819 5818 5816 5814 5812
5822 5824 5826 5828 5830 5831 5832 5832 5834 5835 5833 5833 5834 5834 5834 5833 5833 5833 5833 5833 5833 5833 5833 5833 5832 5832 5831 5831 5830 5829 5828 5826 5825 5823 5821 5819 5817 5816 5814 5812 5810 5808 5806 5805
5814 5817 5819 5821 5823 5824 5824 5824 5825 5825 5825 5826 5826 5826 5826 5825 5825 5824 5824 5824 5824 5825 5825 5825 5824 5824 5823 5822 5821 5820 5819 5818 5816 5814 5812 5811 5809 5807 5806 5804 5802 5800 5798 5796
5806 5809 5810 5812 5814 5814 5815 5816 5816 5816 5817 5817 5818 5817 5817 5817 5816 5816 5815 5816 5816 5817 5817 5816 5816 5815 5815 5814 5813 5812 5810 5809 5807 5805 5804 5802 5800 5798 5797 5795 5793 5791 5790 5788
5799 5801 5802 5803 5804 5806 5806 5807 5808 5809 5808 5809 5808 5809 5809 5809 5808 5808 5808 5808 5808 5808 5808 5807 5807 5806 5806 5805 5804 5802 5801 5799 5797 5796 5794 5793 5791 5789 5787 5786 5784 5782 5780 5779
5789 5791 5793 5794 5796 5797 5798 5799 5799 5800 5800 5800 5799 5800 5800 5800 5800 5800 5800 5800 5799 5799 5799 5798 5798 5798 5797 5796 5794 5793 5791 5789 5788 5786 5784 5783 5781 5779 5778 5776 5774 5773 5771 5769
5782 5784 5785 5787 5788 5789 5790 5790 5790 5791 5791 5791 5791 5792 5792 5792 5792 5792 5791 5791 5791 5790 5790 5789 5789 5788 5787 5786 5785 5783 5782 5780 5778 5777 5775 5773 5771 5770 5768 5766 5765 5762 5761 5758
Wind_Speed
11 10 8 8 7 6 6 6 7 7 8 8 8 9 8 8 9 11 11 9 9 8 8 8 9 9 9 10 10 9 9 9 10 10 11 11 11 11 11 11 12 12 13 12
12 12 11 10 9 7 6 8 9 10 9 9 9 11 11 9 10 10 10 10 9 9 9 9 9 10 10 10 10 10 10 10 11 11 12 12 12 12 13 13 13 14 14 14
14 12 12 11 10 9 10 10 11 11 11 10 10 11 12 9 9 10 10 10 10 10 9 9 10 10 11 10 10 11 11 11 11 12 12 13 13 13 13 13 14 14 15 15
15 14 14 13 13 12 13 11 11 11 11 12 11 13 13 12 11 12 12 12 11 10 10 10 10 10 11 11 11 11 11 11 11 12 12 13 14 14 14 14 15 16 17 18
16 16 16 15 14 14 13 12 12 12 13 13 13 14 15 12 13 13 13 14 12 11 10 11 11 11 11 11 12 12 12 12 12 13 13 14 15 15 15 16 16 17 18 18
17 17 16 16 16 15 14 13 14 14 14 14 13 12 13 13 14 15 15 14 13 12 12 13 13 13 13 13 13 13 13 13 13 13 14 15 16 16 17 17 17 18 19 19
18 17 17 16 16 15 15 14 15 14 13 12 10 13 15 15 15 17 15 13 14 14 14 14 14 14 14 14 14 14 15 15 15 15 16 16 17 17 18 18 19 19 19 20
18 18 17 17 17 16 16 15 15 15 14 14 13 14 14 16 16 16 15 15 16 15 15 15 15 15 15 15 15 16 16 17 16 17 17 18 18 19 19 20 20 20 20 20
19 18 17 18 18 16 16 17 15 16 16 17 16 15 17 16 16 16 17 17 16 15 15 15 15 16 16 16 16 16 17 17 17 17 18 19 20 21 21 21 21 21 21 21
20 19 18 17 17 18 17 17 16 16 18 18 17 18 19 17 15 17 18 17 16 16 15 16 17 17 17 18 18 18 18 18 18 18 19 20 21 22 22 22 22 22 22 22
22 21 18 17 19 18 17 16 16 17 17 17 19 18 18 20 19 20 19 19 18 18 18 18 18 19 19 19 19 19 19 19 19 20 21 22 22 22 22 22 23 23 23 23
23 22 21 19 19 19 20 19 19 19 19 19 20 20 20 21 21 20 18 19 19 19 19 19 19 20 20 21 20 20 21 21 21 21 22 23 23 23 23 23 23 23 23 24
24 23 22 19 19 20 21 20 19 19 19 20 21 22 21 23 22 21 22 20 21 21 21 21 21 22 22 22 22 22 22 22 23 23 23 23 24 24 24 24 24 25 24 24
24 22 21 20 21 20 20 20 20 20 20 22 22 23 23 24 25 24 24 22 22 21 22 23 23 23 24 23 23 23 23 23 24 24 24 24 25 25 26 26 26 26 25 24
24 23 22 23 22 20 21 20 21 22 22 23 22 23 23 26 26 25 25 25 25 23 23 24 24 24 24 24 24 23 24 24 25 25 25 25 26 26 26 27 26 25 25 25
25 25 25 25 22 22 22 21 21 21 21 23 24 25 26 28 30 29 29 27 26 24 24 24 24 24 24 25 25 25 25 26 26 26 26 26 26 26 27 27 27 27 27 27
25 25 25 24 22 22 23 22 22 23 24 25 28 29 28 28 30 31 29 28 28 27 26 25 25 25 25 26 26 26 26 26 27 26 26 27 27 26 27 27 27 28 28 27
25 26 26 25 23 24 23 23 25 27 27 28 29 30 29 30 31 31 30 29 29 28 27 27 27 27 26 27 27 27 27 27 27 28 28 28 27 27 28 28 27 27 27 27
26 27 26 26 25 24 23 24 25 27 29 30 30 30 30 31 32 33 31 30 29 29 29 29 29 28 28 28 28 28 28 28 29 29 29 29 28 29 29 28 28 28 28 28
27 27 28 27 27 26 28 28 28 28 30 31 32 31 30 31 32 32 31 32 31 30 30 30 30 30 30 30 30 30 30 30 31 31 31 30 29 29 29 29 29 29 29 28
27 28 28 28 28 29 30 30 29 30 31 30 31 32 32 33 33 33 32 32 32 31 31 31 32 32 31 31 31 31 31 32 32 32 32 31 31 30 30 30 30 30 30 30
28 28 29 30 30 33 31 31 31 32 32 31 31 32 33 34 34 33 33 33 33 32 32 32 32 32 32 32 32 32 33 33 33 32 32 32 32 32 31 32 32 32 31 31
29 30 30 31 32 32 33 33 33 33 34 33 33 33 33 34 34 34 33 33 33 33 32 32 33 33 33 33 33 34 34 34 34 34 34 33 33 33 33 33 33 33 32 32
30 31 32 32 33 35 35 34 34 34 34 34 34 34 34 34 34 33 33 33 33 33 33 33 33 33 33 34 34 33 34 35 35 35 35 34 34 34 33 33 33 33 32 32
30 30 32 34 33 33 35 35 34 34 34 34 33 32 33 34 33 33 33 33 33 33 33 33 33 33 34 35 35 35 35 36 36 35 35 36 35 34 33 34 34 34 33 33
29 30 32 32 32 33 33 35 35 35 34 34 33 33 34 34 34 34 34 33 32 33 34 34 34 35 35 35 35 36 36 36 35 35 35 36 35 34 34 34 35 35 34 34
Wind_Direction
212 216 214 216 221 225 227 235 242 253 276 288 295 293 290 300 307 311 314 311 313 322 327 327 324 327 331 332 335 334 333 332 331 332 332 332 333 332 331 331 330 329 332 329
215 222 219 215 219 224 232 240 250 248 259 275 283 281 279 285 293 299 306 307 307 311 316 317 320 321 321 324 327 327 329 329 327 327 327 328 329 330 329 327 327 327 326 324
220 223 230 222 217 226 233 235 250 256 252 260 268 272 285 287 287 287 296 307 305 306 309 311 314 317 318 321 321 322 322 324 322 324 324 325 326 327 327 325 324 323 321 320
222 226 227 226 229 231 243 235 247 254 255 262 266 272 280 289 284 290 297 299 300 301 303 308 310 313 315 318 319 320 320 319 318 320 321 321 322 323 323 322 322 322 320 318
223 228 228 231 235 237 241 241 245 248 246 251 257 259 275 283 283 288 293 295 299 295 299 303 304 306 308 311 315 317 319 318 317 316 317 319 320 320 320 320 322 323 322 319
223 224 231 233 237 238 237 242 254 255 252 256 257 262 266 275 277 282 287 289 293 294 293 296 299 300 302 305 308 310 313 314 314 313 314 315 317 317 318 318 319 320 320 319
228 228 236 237 240 239 237 241 254 260 267 269 265 263 264 273 274 277 280 283 286 287 287 288 291 296 298 300 303 306 308 309 308 309 311 312 313 314 316 316 316 317 317 318
235 237 238 240 240 241 238 241 251 260 267 266 256 256 261 276 281 279 280 282 282 283 286 287 287 291 294 297 299 301 305 305 304 305 306 306 308 311 312 314 314 315 316 316
229 238 239 241 242 241 238 236 246 258 262 266 261 256 263 269 276 280 285 284 283 282 284 285 285 286 289 293 295 297 300 303 302 301 303 306 308 308 309 310 311 312 313 313
227 231 230 235 242 244 246 240 241 248 258 263 264 264 268 270 271 277 282 285 283 281 283 285 285 285 287 289 293 295 297 300 303 300 300 304 306 306 306 306 307 308 309 309
227 232 233 237 244 242 242 244 245 247 251 260 269 265 266 269 268 274 278 282 284 283 281 281 283 284 286 288 290 294 296 300 301 302 300 301 302 303 303 303 304 305 306 307
228 227 227 231 241 246 245 242 243 249 256 254 263 271 269 271 270 272 274 277 279 280 281 283 283 284 286 287 289 291 294 298 300 302 302 300 300 301 300 300 302 305 305 305
226 227 224 228 236 241 246 245 243 245 254 258 261 265 270 277 274 273 273 273 275 279 281 283 282 285 285 284 286 289 292 296 299 301 302 301 299 301 300 301 302 302 301 302
230 231 227 230 237 243 243 246 244 243 247 255 259 263 267 269 269 269 274 276 278 281 281 282 283 284 284 283 283 286 290 294 297 299 300 300 299 299 299 299 299 298 297 298
229 230 230 236 238 244 245 248 248 249 251 254 259 261 264 267 270 268 272 275 277 279 280 282 282 282 284 284 284 286 289 291 294 296 297 298 298 297 297 297 297 297 296 297
233 233 232 236 239 243 247 250 254 258 260 259 258 257 256 260 266 270 272 274 276 276 277 279 280 281 282 283 283 286 288 289 291 293 295 296 296 295 297 298 297 295 295 294
235 237 236 237 237 243 246 247 250 251 251 254 257 257 262 263 265 268 270 272 274 278 277 278 279 280 283 284 283 284 286 288 290 292 293 295 295 295 296 297 297 296 295 294
242 241 240 242 242 245 249 251 254 255 253 253 257 259 261 263 265 267 269 271 274 277 278 279 280 281 282 283 284 284 285 286 288 289 291 293 292 292 292 292 296 298 298 299
239 244 244 244 249 251 251 249 252 253 255 257 259 262 263 264 266 266 269 273 274 276 278 279 279 280 282 281 282 283 284 285 287 288 289 290 291 291 292 294 297 297 296 297
240 241 244 244 247 252 252 250 252 255 257 258 260 263 265 267 267 267 270 272 273 275 277 278 279 280 281 280 281 282 283 284 286 287 288 289 289 290 292 293 295 296 295 294
242 243 244 245 247 252 255 255 256 258 259 261 263 264 266 268 269 270 271 272 273 274 276 276 277 279 279 280 281 283 284 285 286 287 286 286 288 289 291 293 294 294 294 294
243 243 245 245 245 249 252 253 256 258 262 264 265 266 266 268 270 271 271 271 272 273 275 275 277 278 278 279 281 283 283 284 285 285 286 287 287 288 289 290 292 293 293 293
242 241 244 244 248 251 252 255 259 262 263 263 266 266 267 269 270 271 271 271 272 274 275 274 275 276 276 278 280 281 282 283 283 283 284 284 285 286 287 290 291 291 291 292
245 246 246 248 249 252 254 257 259 261 264 267 267 267 268 268 270 271 271 272 273 273 274 274 274 275 275 277 279 280 281 282 283 283 283 283 283 285 286 288 289 289 289 289
243 245 249 251 252 254 256 258 260 262 264 265 267 266 267 268 270 270 271 272 272 273 273 273 273 274 276 277 279 280 281 282 283 282 281 282 283 283 284 286 287 287 286 286
248 250 253 255 256 255 257 260 261 262 264 266 267 266 267 269 270 270 271 272 273 273 273 274 274 275 276 277 278 279 281 283 284 283 284 284 283 284 286 287 286 285 285 285